Saguache, CO

10:50 AM MDT on August 18, 2017 (GMT -0600)
Saguache

Weather History for K04V - November, 2013

Change the Weather History Date:

Friday, November 8, 2013

  Actual Average (KALS) Record (KALS)
Temperature  
Mean Temperature 37 °F -  
Max Temperature 57 °F 51 °F 70 °F (1980)
Min Temperature 17 °F 17 °F -5 °F (1943)
Degree Days  
Heating Degree Days 28    
Moisture  
Dew Point 14 °F    
Average Humidity 45    
Maximum Humidity 80    
Minimum Humidity 18    
Precipitation  
Precipitation 0.00 in - - ()
Sea Level Pressure  
Sea Level Pressure 30.19 in    
Wind  
Wind Speed 8 mph (NW)    
Max Wind Speed 20 mph    
Max Gust Speed 23 mph    
Visibility 10 miles    
Events      
Averages and records for this station are not official NWS values.
T = Trace of Precipitation, MM = Missing Value Source: NWS Daily Summary

Daily Weather History Graph

Daily Weather History Graph

Search for Another Location

Airport or City:

Trip Planner

Search our weather history database for the weather conditions in past years. The results will help you decide how hot, cold, wet, or windy it might be!

Date:

Astronomy

Nov. 08, 2013 Rise Set
Actual Time 6:38 AM MST 4:58 PM MST
Civil Twilight 6:10 AM MST 5:25 PM MST
Nautical Twilight 5:39 AM MST 5:57 PM MST
Astronomical Twilight 5:08 AM MST 6:28 PM MST
Moon 11:36 AM MST (11/8) 10:21 PM MST (11/8)
Length of Visible Light 11h 15m
Length of Day
10h 19m
Waxing Crescent, 34% of the Moon is Illuminated
Nov 8
Waxing Crescent
Nov 9
First Quarter
Nov 17
Full
Nov 25
Last Quarter
Dec 2
New

Hourly Weather History & Observations

Time (MST) Temp. Windchill Dew Point Humidity Pressure Visibility Wind Dir Wind Speed Gust Speed Precip Events Conditions
12:12 AM 26.6 °F 21.2 °F 12.2 °F 55% 30.28 in 10.0 mi NNW 4.6 mph - N/A   Clear
12:32 AM 21.2 °F 12.6 °F 10.4 °F 63% 30.28 in 10.0 mi NNW 6.9 mph - N/A   Clear
12:52 AM 24.8 °F 16.1 °F 12.2 °F 59% 30.28 in 10.0 mi NNW 8.1 mph - N/A   Clear
1:12 AM 24.8 °F 16.1 °F 14.0 °F 64% 30.28 in 10.0 mi NNW 8.1 mph - N/A   Clear
1:32 AM 23.0 °F 13.9 °F 12.2 °F 63% 30.27 in 10.0 mi North 8.1 mph - N/A   Clear
1:52 AM 23.0 °F 18.4 °F 10.4 °F 59% 30.27 in 10.0 mi North 3.5 mph - N/A   Clear
2:12 AM 21.2 °F 13.6 °F 12.2 °F 68% 30.26 in 10.0 mi NNW 5.8 mph - N/A   Clear
2:32 AM 21.2 °F 16.4 °F 10.4 °F 63% 30.26 in 10.0 mi North 3.5 mph - N/A   Clear
2:52 AM 19.4 °F 10.4 °F 10.4 °F 68% 30.26 in 10.0 mi NNW 6.9 mph - N/A   Clear
3:12 AM 19.4 °F 14.3 °F 10.4 °F 68% 30.25 in 10.0 mi NNW 3.5 mph - N/A   Clear
3:32 AM 21.2 °F 10.1 °F 12.2 °F 68% 30.25 in 10.0 mi NNW 10.4 mph - N/A   Clear
3:52 AM 19.4 °F 8.6 °F 14.0 °F 80% 30.24 in 10.0 mi NW 9.2 mph - N/A   Clear
4:12 AM 19.4 °F 8.6 °F 10.4 °F 68% 30.24 in 10.0 mi NNW 9.2 mph - N/A   Clear
4:32 AM 17.6 °F 9.3 °F 10.4 °F 73% 30.24 in 10.0 mi NNW 5.8 mph - N/A   Clear
4:51 AM 17.6 °F 6.4 °F 10.4 °F 73% 30.24 in 10.0 mi NW 9.2 mph - N/A   Clear
5:12 AM 19.4 °F 7.9 °F 12.2 °F 74% 30.24 in 10.0 mi NW 10.4 mph - N/A   Clear
5:32 AM 19.4 °F 10.4 °F 12.2 °F 74% 30.24 in 10.0 mi NNW 6.9 mph - N/A   Clear
5:52 AM 19.4 °F 11.5 °F 12.2 °F 74% 30.24 in 10.0 mi NNW 5.8 mph - N/A   Clear
6:12 AM 19.4 °F 10.4 °F 12.2 °F 74% 30.24 in 10.0 mi NNW 6.9 mph - N/A   Clear
6:32 AM 23.0 °F 12.4 °F 14.0 °F 68% 30.24 in 10.0 mi NW 10.4 mph - N/A   Clear
6:52 AM 19.4 °F 7.9 °F 12.2 °F 74% 30.25 in 10.0 mi NNW 10.4 mph - N/A   Clear
7:12 AM 21.2 °F 13.6 °F 14.0 °F 74% 30.25 in 10.0 mi NNW 5.8 mph - N/A   Clear
7:32 AM 24.8 °F 16.9 °F 14.0 °F 64% 30.25 in 10.0 mi NW 6.9 mph - N/A   Clear
7:51 AM 28.4 °F 20.4 °F 15.8 °F 59% 30.26 in 10.0 mi WNW 8.1 mph - N/A   Clear
8:12 AM 30.2 °F 22.6 °F 15.8 °F 55% 30.26 in 10.0 mi NW 8.1 mph - N/A   Clear
8:32 AM 32.0 °F 25.6 °F 15.8 °F 51% 30.25 in 10.0 mi NW 6.9 mph - N/A   Clear
8:52 AM 35.6 °F 30.7 °F 15.8 °F 44% 30.24 in 10.0 mi NW 5.8 mph - N/A   Clear
9:12 AM 37.4 °F 33.8 °F 15.8 °F 41% 30.24 in 10.0 mi WNW 4.6 mph - N/A   Clear
9:31 AM 37.4 °F - 15.8 °F 41% 30.23 in 10.0 mi Calm Calm - N/A   Clear
9:51 AM 39.2 °F - 15.8 °F 39% 30.22 in 10.0 mi Calm Calm - N/A   Clear
10:11 AM 41.0 °F 38.0 °F 15.8 °F 36% 30.21 in 10.0 mi SSW 4.6 mph - N/A   Clear
10:32 AM 42.8 °F 39.3 °F 15.8 °F 34% 30.21 in 10.0 mi South 5.8 mph - N/A   Clear
10:52 AM 44.6 °F 43.1 °F 15.8 °F 31% 30.20 in 10.0 mi SSW 3.5 mph - N/A   Clear
11:12 AM 46.4 °F 42.9 °F 15.8 °F 29% 30.19 in 10.0 mi South 6.9 mph - N/A   Clear
11:32 AM 46.4 °F 44.3 °F 15.8 °F 29% 30.17 in 10.0 mi South 4.6 mph - N/A   Clear
11:52 AM 48.2 °F - 14.0 °F 25% 30.15 in 10.0 mi SE 5.8 mph - N/A   Clear
12:12 PM 48.2 °F - 14.0 °F 25% 30.14 in 10.0 mi SSE 6.9 mph - N/A   Clear
12:32 PM 50.0 °F - 14.0 °F 24% 30.12 in 10.0 mi SSE 8.1 mph - N/A   Clear
12:51 PM 50.0 °F - 14.0 °F 24% 30.11 in 10.0 mi SSE 8.1 mph - N/A   Clear
1:12 PM 51.8 °F - 14.0 °F 22% 30.11 in 10.0 mi South 9.2 mph - N/A   Clear
1:32 PM 51.8 °F - 14.0 °F 22% 30.10 in 10.0 mi South 10.4 mph - N/A   Clear
1:52 PM 53.6 °F - 14.0 °F 21% 30.10 in 10.0 mi SSE 9.2 mph - N/A   Clear
2:12 PM 53.6 °F - 12.2 °F 19% 30.10 in 10.0 mi SSE 5.8 mph - N/A   Clear
2:32 PM 53.6 °F - 12.2 °F 19% 30.09 in 10.0 mi South 5.8 mph - N/A   Clear
2:52 PM 55.4 °F - 14.0 °F 20% 30.09 in 10.0 mi ESE 4.6 mph - N/A   Clear
3:12 PM 55.4 °F - 14.0 °F 20% 30.09 in 10.0 mi Calm Calm - N/A   Clear
3:31 PM 57.2 °F - 14.0 °F 18% 30.09 in 10.0 mi NW 12.7 mph 18.4 mph N/A   Clear
3:52 PM 57.2 °F - 14.0 °F 18% 30.09 in 10.0 mi NNW 15.0 mph 21.9 mph N/A   Clear
4:12 PM 55.4 °F - 14.0 °F 20% 30.09 in 10.0 mi NNW 15.0 mph - N/A   Clear
4:32 PM 53.6 °F - 12.2 °F 19% 30.09 in 10.0 mi NNW 16.1 mph 21.9 mph N/A   Clear
4:51 PM 51.8 °F - 14.0 °F 22% 30.10 in 10.0 mi NNW 13.8 mph 23.0 mph N/A   Clear
5:12 PM 50.0 °F - 14.0 °F 24% 30.11 in 10.0 mi NNW 12.7 mph 17.3 mph N/A   Clear
5:32 PM 44.6 °F 39.2 °F 14.0 °F 29% 30.12 in 10.0 mi WNW 10.4 mph - N/A   Clear
5:51 PM 46.4 °F 41.1 °F 14.0 °F 27% 30.12 in 10.0 mi WNW 11.5 mph - N/A   Clear
6:12 PM 46.4 °F 42.4 °F 14.0 °F 27% 30.14 in 10.0 mi NW 8.1 mph - N/A   Clear
6:32 PM 42.8 °F 37.0 °F 14.0 °F 31% 30.15 in 10.0 mi NW 10.4 mph - N/A   Clear
6:52 PM 44.6 °F 39.2 °F 14.0 °F 29% 30.15 in 10.0 mi NW 10.4 mph - N/A   Clear
7:12 PM 37.4 °F 30.8 °F 14.0 °F 38% 30.16 in 10.0 mi NNW 9.2 mph - N/A   Clear
7:32 PM 37.4 °F 30.3 °F 14.0 °F 38% 30.16 in 10.0 mi NNW 10.4 mph - N/A   Clear
7:52 PM 37.4 °F 30.3 °F 14.0 °F 38% 30.17 in 10.0 mi NNW 10.4 mph - N/A   Clear
8:11 PM 35.6 °F 28.6 °F 14.0 °F 41% 30.17 in 10.0 mi NNW 9.2 mph - N/A   Clear
8:32 PM 35.6 °F 27.5 °F 14.0 °F 41% 30.19 in 10.0 mi North 11.5 mph - N/A   Clear
8:52 PM 35.6 °F 27.1 °F 14.0 °F 41% 30.19 in 10.0 mi North 12.7 mph - N/A   Clear
9:12 PM 37.4 °F 28.5 °F 14.0 °F 38% 30.19 in 10.0 mi North 15.0 mph - N/A   Clear
9:32 PM 33.8 °F 29.6 °F 14.0 °F 44% 30.20 in 10.0 mi WNW 4.6 mph - N/A   Clear
9:52 PM 32.0 °F 25.6 °F 15.8 °F 51% 30.21 in 10.0 mi NW 6.9 mph - N/A   Clear
10:12 PM 35.6 °F 29.2 °F 15.8 °F 44% 30.21 in 10.0 mi NNW 8.1 mph - N/A   Clear
10:32 PM 32.0 °F 23.6 °F 15.8 °F 51% 30.21 in 10.0 mi North 10.4 mph - N/A   Clear
10:52 PM 35.6 °F 25.2 °F 15.8 °F 44% 30.21 in 10.0 mi NNW 18.4 mph - N/A   Clear
11:12 PM 33.8 °F 22.5 °F 15.8 °F 48% 30.21 in 10.0 mi NW 19.6 mph - N/A   Clear
11:32 PM 33.8 °F 23.2 °F 15.8 °F 48% 30.22 in 10.0 mi NNW 17.3 mph - N/A   Clear
11:52 PM 32.0 °F 21.2 °F 15.8 °F 51% 30.22 in 10.0 mi NNW 16.1 mph - N/A   Clear